Location: *
(50.2833°S, 169.2167°W)
Time: 00:41:21
(UTC+00:00)

Daily predictions for brighter satellites

Satellite Brightness Start Highest point End
(mag) Time Altitude Azimuth Time Altitude Azimuth Time Altitude Azimuth
USA 308 4.3 05:45:50 10° WSW 05:49:53 37° NW 05:53:55 10° NNE
Cosmos 1758 4.0 05:46:14 10° S 05:50:00 34° ESE 05:53:42 10° NE
Cosmos 2237 Rocket 3.1 05:45:59 10° NW 05:51:35 55° SW 05:57:17 10° SSE
Okean 1 Rocket 3.8 05:47:39 10° SSW 05:52:05 61° W 05:56:30 10° N
Cosmos 1271 Rocket 4.4 05:50:48 10° NW 05:54:28 40° WSW 05:58:08 10° S
SL-16 R/B 2.2 05:49:12 10° NNW 05:54:51 71° ENE 06:00:35 10° SSE
Cosmos 1726 3.2 05:53:44 10° SSE 05:56:56 26° ESE 06:00:05 10° NE
CZ-2C R/B 4.3 05:53:41 10° NE 05:58:14 44° ESE 06:02:51 10° S
FALCON 9 DEB 3.3 05:54:56 10° WSW 05:58:30 77° SSE 06:02:03 10° ENE
Cosmos 1975 Rocket 3.3 05:56:13 10° N 06:00:32 51° E 06:04:57 10° SSE
Cosmos 371 Rocket 3.9 05:56:32 10° SSW 06:01:11 39° ESE 06:05:47 10° NE
Cosmos 2279 Rocket 4.1 05:55:47 10° S 06:02:01 60° ESE 06:08:12 10° NNE
YAOGAN 1 3.7 06:00:02 10° SE 06:03:33 22° E 06:07:00 10° NE
USA 281 3.4 05:57:00 10° SSE 06:03:40 83° WSW 06:10:17 10° NNW
NOAA 11 4.2 06:04:15 10° SSE 06:09:47 63° ENE 06:15:16 10° N
SMAP 3.6 06:07:10 10° S 06:11:54 66° WSW 06:16:33 10° NNW
Cosmos 1943 4.1 06:08:28 10° NNE 06:13:10 27° ENE 06:17:54 10° SE
NOAA 12 4.4 06:11:55 10° SSE 06:17:18 74° WSW 06:22:34 10° NNW
Orbus 7S? 2.9 06:14:39 10° WNW 06:17:43 63° SSW 06:20:18 10° SE
SL-4 R/B 1.8 06:14:36 10° WSW 06:18:08 67° NNW 06:20:59 14° ENE
Cosmos 1624 Rocket 4.0 06:12:55 10° SSW 06:18:15 68° ESE 06:23:28 10° NNE
Cosmos 1939 Rocket 2.9 06:15:38 10° SSE 06:19:40 59° E 06:23:42 10° N
BREEZE-M DEB (TANK) 3.0 06:10:31 10° W 06:20:27 84° N 06:23:12 15° E
Cosmos 1818 3.9 06:17:14 10° SW 06:22:32 50° SE 06:26:57 14° ENE
USA 267 4.0 06:17:29 10° ESE 06:23:49 50° S 06:30:09 10° WSW
Okean 2 4.0 06:20:17 10° NNW 06:24:24 63° WSW 06:28:34 10° S
Cosmos 1356 Rocket 4.3 06:23:45 10° S 06:27:25 29° ESE 06:29:54 16° ENE
FALCON 9 DEB 3.2 06:24:44 10° W 06:28:03 70° SSW 06:30:56 13° ESE
FengYun 1-2 T 4.3 06:22:31 10° SSE 06:28:07 87° WSW 06:33:42 10° NNW
Cosmos 1544 Rocket 3.6 06:23:36 10° S 06:28:10 72° E 06:32:36 10° NNE
Cosmos 1470 3.1 06:26:40 10° SSW 06:30:45 72° W 06:34:45 10° N
Cosmos 923 Rocket 4.1 06:27:07 10° NNW 06:32:24 83° WSW 06:37:49 10° SSE
Cosmos 2369 Rocket 2.2 06:27:54 10° SSW 06:33:37 86° WNW 06:39:15 10° NNE
CZ-4B R/B 4.4 06:30:32 10° S 06:35:42 47° WSW 06:40:54 10° NW
FALCON 9 DEB 3.4 06:34:51 10° W 06:38:11 65° SSW 06:40:41 17° ESE
Cosmos 304 Rocket 4.3 06:34:58 10° SSW 06:39:41 44° ESE 06:42:46 20° ENE
Cosmos 1437 3.8 06:36:52 10° NNW 06:39:49 46° WSW 06:42:48 10° S
Okean-O 2.6 06:36:05 10° SSE 06:40:36 62° ENE 06:45:02 10° N
Cosmos 158 Rocket 3.9 06:35:52 10° NNW 06:40:47 83° WSW 06:45:48 10° SSE
Cosmos 1603 3.9 06:36:07 10° N 06:41:30 48° ENE 06:46:58 10° SE
Cosmos 1025 Rocket 3.1 06:41:00 10° N 06:45:20 59° E 06:49:42 10° SSE
Cosmos 1707 2.7 06:42:57 10° N 06:46:54 87° E 06:50:54 10° S
Cosmos 2263 4.2 06:41:43 10° SSW 06:47:28 90° ESE 06:52:39 13° NNE
IRS-1C Rocket 4.1 06:42:15 10° SSE 06:47:39 87° WSW 06:52:59 10° NNW
CZ-2D R/B 3.3 06:43:56 10° SSE 06:47:55 89° E 06:51:51 10° NNW
In-Cosmos 22 4.3 06:48:02 10° N 06:53:42 63° E 06:59:29 10° SSE
CZ-2C R/B 4.3 06:48:41 10° NNW 06:53:45 36° W 06:58:46 10° SSW
Helios 1A Rocket 3.4 06:58:29 10° S 07:02:35 65° WSW 07:06:38 10° NNW
Okean O Rocket 4.3 06:59:15 10° S 07:02:46 23° WSW 07:06:16 10° WNW
CSL-04 Rocket 3.8 06:58:07 10° SSE 07:03:22 50° E 07:08:33 10° N
Cosmos 1953 2.5 06:59:51 10° SSW 07:04:03 79° W 07:07:40 13° N
CSL-04 Debris 4.3 06:59:15 10° SSE 07:04:42 55° E 07:10:03 10° N
Cosmos 1536 Rocket 3.5 07:00:37 10° N 07:05:05 71° E 07:09:35 10° SSE
CZ-2C R/B 2.8 07:00:51 10° SSE 07:05:40 65° ENE 07:10:34 10° N
SL-24 R/B - RUBIN 2 3.6 07:01:51 10° SW 07:06:16 73° SE 07:08:22 32° NE
FALCON 9 DEB 3.6 07:03:46 10° W 07:07:02 54° S 07:08:19 31° SE
Cosmos 1656 Rocket 3.6 07:02:04 10° SSW 07:07:38 86° WNW 07:11:17 22° NNE
Cosmos 1900 4.2 07:02:54 10° NNW 07:07:52 68° NE 07:12:47 10° SE
Ariane Rocket 4.1 07:08:00 10° SE 07:11:38 25° E 07:11:38 25° E
CRYOSAT 2 4.4 07:09:43 22° NNE 07:12:48 64° E 07:17:43 10° S
Cosmos 2228 3.5 07:09:04 10° S 07:13:22 41° ESE 07:14:13 37° ENE
ERBS 2.4 07:11:32 10° WSW 07:14:57 69° NW 07:15:32 54° NNE
CZ-4 R/B 1.9 07:10:56 10° S 07:15:07 64° WSW 07:19:19 10° NNW
H-2A R/B 3.4 07:14:32 25° NNE 07:16:53 86° WNW 07:21:05 10° SSW
SJ-11-01 4.2 07:12:57 10° SSE 07:17:48 69° ENE 07:22:35 10° N
Lacrosse 5 3.4 07:13:51 10° WSW 07:18:19 30° NW 07:21:41 15° N
SeaSat 1 2.4 07:14:27 10° SSE 07:19:30 88° WSW 07:24:28 10° NNW
Cosmos 1943 Rocket 4.1 07:15:57 10° SW 07:20:44 28° WNW 07:25:29 10° NNW
Nadezhda 4 Rocket 4.0 07:15:01 10° N 07:21:20 88° E 07:27:46 10° S
FALCON 9 DEB 3.6 07:18:26 10° W 07:21:44 52° S 07:22:25 42° SE
GEOS 3 Rocket 3.9 07:18:49 10° SE 07:23:51 65° SW 07:28:52 10° WNW
Cosmos 1674 2.5 07:23:45 37° N 07:25:10 78° E 07:29:00 10° SSE
Meteor 2-13 Rocket 4.4 07:21:42 10° N 07:27:39 65° E 07:33:44 10° SSE
H-2A R/B 1.8 07:24:04 10° SSE 07:29:10 78° ENE 07:34:07 10° N
ATLAS 5 CENTAUR R/B 3.7 07:26:53 10° WSW 07:31:20 26° WNW 07:34:50 12° NNW
Cosmos 1553 Rocket 4.4 07:25:35 10° S 07:31:30 44° ESE 07:33:04 37° ENE
Cosmos 1726 4.2 07:28:54 10° SSW 07:32:06 27° W 07:35:15 10° NNW
HJ-1C 3.7 07:31:25 10° S 07:34:48 65° WSW 07:36:06 33° NW
SL-08 RB Rocket 3.8 07:31:08 10° SSE 07:35:49 54° E 07:36:14 52° ENE
ARGOS 3.1 07:31:35 10° SSE 07:37:02 68° ENE 07:40:26 23° N
SL-16 R/B 4.3 07:34:39 10° WNW 07:39:31 28° SW 07:44:27 10° SSE
YAOGAN 1 3.6 07:35:37 10° S 07:39:52 47° WSW 07:44:04 10° NW
Cosmos 44 4.3 07:36:33 10° SSW 07:40:46 30° SSE 07:41:32 29° SE
Resurs 01 Rocket 4.1 07:42:59 10° SE 07:43:03 10° SE 07:43:03 10° SE
Cosmos 1452 Rocket 3.8 07:42:38 10° SSW 07:47:56 65° WNW 07:49:59 37° N
Cosmos 1048 Rocket 4.1 07:48:07 55° ENE 07:48:09 55° ENE 07:53:23 10° SSE
Cosmos 1110 Rocket 4.0 07:44:06 10° SSW 07:49:25 64° ESE 07:50:13 56° ENE
Cosmos 2058 Rocket 3.6 07:45:15 10° S 07:49:04 44° SE 07:49:04 44° SE
Cosmos 1908 4.2 07:46:03 10° SSW 07:49:53 45° W 07:51:08 33° NW
Cosmos 1300 3.3 07:47:13 10° S 07:50:20 49° SSE 07:50:20 49° SSE
Cosmos 1331 Rocket 4.1 07:45:47 10° SSW 07:51:08 61° ESE 07:51:50 55° E
Meteor 2-8 Rocket 4.4 07:49:43 10° S 07:55:57 71° ESE 07:57:27 52° NE
Cosmos 1943 3.7 07:51:08 10° NW 07:56:49 62° SW 08:02:33 10° SSE
SL-4 R/B 4.0 07:54:52 10° W 07:56:34 16° NW 07:56:34 16° NW
Cosmos 1626 3.5 08:01:33 32° SSE 08:01:33 32° SSE 08:03:43 10° SSE
Meteor 1-24 Rocket 3.8 08:01:31 52° NNE 08:02:59 70° E 08:09:02 10° SSE
MetOp-A 4.2 07:59:39 10° SSE 08:04:37 57° E 08:04:37 57° E
USA 267 3.5 08:03:54 40° E 08:06:21 65° SSE 08:12:55 10° WSW
Meteor 2-5 Rocket 3.8 08:07:43 31° NNW 08:10:45 85° WSW 08:16:48 10° SSE
Cosmos 1697 Rocket 3.8 08:16:10 10° SSW 08:21:13 31° SE 08:21:28 31° SE
Cosmos 1726 Rocket 4.1 08:18:01 10° SSW 08:22:23 56° W 08:22:23 56° W
Cosmos 1656 4.1 08:20:05 10° SSW 08:25:14 47° SE 08:25:14 47° SE
Cosmos 2026 Rocket 4.2 08:22:07 27° NNW 08:25:40 67° WSW 08:31:54 10° S
Meteor 2-10 Rocket 3.9 08:21:36 10° S 08:26:35 58° SE 08:26:35 58° SE
MOS 1 4.1 08:21:29 10° SSE 08:27:16 83° ENE 08:27:24 82° NE
Cosmos 1980 Rocket 3.8 08:24:15 10° SSW 08:28:47 23° SE 08:29:22 23° SE
S3M 3.9 08:23:04 10° S 08:29:36 80° E 08:30:06 74° NE
SJ-6B 4.4 08:28:48 10° S 08:31:04 31° S 08:31:04 31° S
Cosmos 1655 Rocket 4.0 08:34:09 65° ESE 08:34:09 65° ESE 08:40:17 10° SSE
Meteor 2-1 Rocket 4.4 08:32:29 10° S 08:38:07 68° SE 08:38:07 68° SE
Thor Agena Rocket 4.4 08:41:19 42° SSE 08:41:19 42° SSE 08:45:09 10° S
Meteor 2-15 4.3 08:35:31 10° SSW 08:41:41 83° W 08:41:55 81° NW
NOSS 3-3 (A) 4.0 08:41:46 10° SW 08:48:35 72° SE 08:48:35 72° SE
NOSS 3-3 (C) 4.0 08:41:57 10° SW 08:48:44 72° SE 08:48:44 72° SE
Ariane Rocket 3.6 08:46:30 10° S 08:51:30 52° WSW 08:51:51 51° W
SL-16 R/B 4.4 08:49:22 10° S 08:52:45 16° SSE 08:54:13 14° SE
Cosmos 2315 Rocket 4.2 09:01:29 10° S 09:07:16 70° SSE 09:07:16 70° SSE
H-2A R/B 4.5 09:04:31 10° SSW 09:08:01 19° SW 09:11:27 10° W
OBJECT-B 4.2 09:06:21 10° S 09:06:31 11° S 09:06:31 11° S
Resurs 01 Rocket 3.6 09:18:36 10° S 09:20:38 26° S 09:20:38 26° S
Cosmos 2266 Rocket 4.3 09:30:24 63° SW 09:30:24 63° SW 09:36:12 10° S
CENTAUR R/B 4.5 09:35:44 19° ESE 09:35:44 19° ESE 09:37:29 10° SE
USA 267 3.9 09:51:14 46° W 09:51:14 46° W 09:56:01 10° WSW
Terra 4.3 09:45:34 10° SSE 09:46:27 15° SSE 09:46:27 15° SSE
Cosmos 2360 Rocket 4.2 09:58:07 10° S 10:02:12 19° SE 10:02:31 19° SE
Cosmos 1697 Rocket 4.1 09:59:57 10° SW 10:03:12 34° SW 10:03:12 34° SW
Cosmos 1980 Rocket 3.6 10:07:49 10° SSW 10:11:07 36° SSW 10:11:07 36° SSW
Cosmos 2322 Rocket 3.8 10:19:08 10° SSW 10:22:44 30° SSE 10:22:44 30° SSE
NOSS 3-2 (A) 4.2 10:33:06 64° S 10:33:06 64° S 10:39:32 10° SE
SL-16 R/B 3.7 10:32:44 10° SSW 10:36:04 33° S 10:36:04 33° S
Cosmos 2082 Rocket 4.0 10:42:24 26° SSE 10:42:24 26° SSE 10:44:48 10° SSE
Cosmos 2219 Rocket 4.4 10:44:43 10° S 10:48:30 18° SSE 10:49:41 17° SE
USA 215 4.1 10:51:49 10° ESE 10:56:20 44° SE 10:56:20 44° SE
NOSS 3-2 (C) 4.3 11:13:11 61° SSW 11:13:11 61° SSW 11:19:42 10° SE
Resurs 1-4 Rocket 3.9 11:17:15 29° S 11:17:15 29° S 11:20:02 10° S
CENTAUR R/B 3.4 11:22:52 51° S 11:22:52 51° S 11:28:06 10° SE
Cosmos 1833 Rocket 4.4 11:26:05 29° SSW 11:26:05 29° SSW 11:29:38 10° SSE
Terra 4.2 11:23:38 10° S 11:25:21 19° SSW 11:25:21 19° SSW
CZ-2D R/B 3.8 11:31:59 29° S 11:31:59 29° S 11:34:40 10° S
Cosmos 2333 Rocket 3.9 11:25:22 10° SSW 11:29:49 30° SSE 11:29:49 30° SSE
ATLAS 3B R/B 3.4 11:36:45 54° SE 11:36:45 54° SE 11:42:14 10° SE
Cosmos 2360 Rocket 3.9 11:41:32 10° SSW 11:44:15 29° SSW 11:44:15 29° SSW
